Miscellaneous Local Product
Issued by NWS Hastings, NE

Home | Current Version | Previous Version | Text Only | Print | Product List | Glossary On
Versions: 1 2 3 4 5 6 7 8 9 10 11 12 13 14 15 16 17 18 19 20 21 22 23 24 25 26 27 28 29 30 31 32 33 34 35 36 37 38 39 40 41 42 43 44 45 46 47 48 49 50
310
AXUS43 KGID 270902
MISGRI

GID CWA HOURLY WEATHER ROUNDUP
NATIONAL WEATHER SERVICE HASTINGS NE
400 AM CDT FRI MAY 27 2016

NOTE: "FAIR" INDICATES FEW OR NO CLOUDS BELOW 12,000 FEET WITH NO
SIGNIFICANT WEATHER AND/OR OBSTRUCTIONS TO VISIBILITY.

...SOUTH CENTRAL NEBRASKA...

CITY           SKY/WX    TMP DP  RH WIND       PRES   REMARKS
GRAND ISLAND   CLOUDY    59  55  87 S12       29.69F
HASTINGS       CLOUDY    57  56  96 S7        29.71F
KEARNEY        CLOUDY    55  54  94 S8        29.72F
ORD            CLOUDY    59  56  89 N9        29.73R
YORK           CLOUDY    59  57  94 SE15G22   29.72R
AURORA         MOCLDY    60  57  89 S13       29.70R
LEXINGTON      MOCLDY    58  55  90 SE9       29.74F
HOLDREGE       CLOUDY    56  54  92 SE10      29.72F
HEBRON         CLOUDY    60  59  96 SE12      29.71S

...NEBRASKA PANHANDLE...

CITY           SKY/WX    TMP DP  RH WIND       PRES   REMARKS
CHADRON        MOCLDY    49  45  86 CALM      29.84F
ALLIANCE       PTCLDY    49  47  93 N12       29.81S
SCOTTSBLUFF    CLOUDY    50  44  80 NW5       29.83F
SIDNEY         LGT RAIN  50  48  93 CALM      29.81S

...WESTERN AND NORTH CENTRAL NEBRASKA...

CITY           SKY/WX    TMP DP  RH WIND       PRES   REMARKS
VALENTINE      LGT RAIN  56  51  84 E5        29.79F
AINSWORTH      CLOUDY    55  53  93 CALM      29.78F
ONEILL         CLOUDY    59  57  93 CALM      29.78F
BROKEN BOW     CLOUDY    58  55  90 NW7       29.74S
IMPERIAL       CLOUDY    53  50  89 S7        29.75F
NORTH PLATTE   MOCLDY    56  54  93 E9        29.75R
MCCOOK         CLOUDY    54  52  93 SE3       29.71F

...EASTERN NEBRASKA...

CITY           SKY/WX    TMP DP  RH WIND       PRES   REMARKS
NORFOLK        CLOUDY    59  56  89 E3        29.74F
SO SIOUX CITY  CLOUDY    64  56  75 N5        29.77F
TEKAMAH        CLOUDY    62  57  83 S14       29.73F
COLUMBUS       CLOUDY    61  54  77 E6        29.73F
ALBION         CLOUDY    60  56  88 E12       29.71F
OMAHA EPPLEY   CLOUDY    63  59  87 S13       29.77F
OFFUTT AFB     LGT RAIN  62  62  99 SE9       29.75F
MILLARD        RAIN      62  60  91 SE7       29.77F
LINCOLN        CLOUDY    62  59  90 E17G35    29.67F
NEBRASKA CITY  DRIZZLE   60  60 100 SE10      29.77F
BEATRICE       CLOUDY    61  58  91 E14G22    29.68F
FALLS CITY     LGT RAIN  62  62 100 SW6       29.77F

...NORTHERN KANSAS...

CITY           SKY/WX    TMP DP  RH WIND       PRES   REMARKS
GOODLAND       MOCLDY    50  47  89 S3        29.72F
HILL CITY      CLOUDY    57  55  93 SE9       29.70F
NORTON         CLOUDY    55  52  88 E7        29.70F
PHILLIPSBURG   CLOUDY    57  57 100 E7        29.70F
SMITH CENTER   PTCLDY    54  54 100 E6        29.71F
BELOIT         CLEAR     57  55  94 E8        29.68F
HAYS           CLOUDY    27 N/A N/A E13       29.67F WCI  16
RUSSELL        CLOUDY    57  56  96 E16       29.66F
CONCORDIA      CLOUDY    58  56  93 SE9       29.69F
SALINA         CLOUDY    61  58  90 E7        29.68F
TOPEKA         LGT RAIN  61  59  93 NE7       29.74F



USA.gov is the U.S. government's official web portal to all federal, state and local government web resources and services.